SPACEBEE-17 (46306 NORAD) Tracking and Keplerian Element Data

This shows tracking and keplerian element data for the satellite.

Feedback or suggestion? Click here.




ElementValue
Catalog46306
NameSPACEBEE-17
Epoch Orbit313
Epoch Day268.27470927
Epoch Year2020
RAAN341.0357
Inclination97.5181
Eccentricity0.000159
Argument of Perigee128.0229
Mean Anonmoly232.1144
Mean Motion15.1066249
Decay Rate1.93E-05
L11 46306U 20061AL 20268.27470927 .00001930 00000-0 12046-3 0 9993
L22 46306 97.5181 341.0357 0001590 128.0229 232.1144 15.10662490 3132

Live tracking and technical data element details for SPACEBEE-17 (NORAD 46306). SPACEBEE-17 can be tracked NOW for your location showing map with azimuth and elevation plus other details from your city location.

Track the satellite on the map from your city or location and see movement details for azimuth, elevation, latitude, longitude, range, height, and movement on the map or in text.







IsCatalogInMostPopularTable: catalog: 46306, numindb: 2
Update: records affected: 1



GetName: 46306 SPACEBEE-17

Hit Count: updated at: Sat, 26 Sep 2020 14:06:17 GMT